NWS Melbourne » East Central Florida Hourly Weather Roundup

ASUS42 KMLB 011611
RWRMLB
HOURLY WEATHER ROUNDUP AROUND FLORIDA
NATIONAL WEATHER SERVICE OFFICE MELBOURNE FL
1200 PM EDT WED APR 01 2015
  
CITY           SKY/WX    TMP DP  RH WIND       PRES   REMARKS
MELBOURNE      MOSUNNY   78  62  57 W14       30.15F                  
FORT PIERCE    MOSUNNY   77  61  57 VRB5      30.17F                  
ORLANDO INTL   CLOUDY    79  63  57 W13       30.15F                  
DAYTONA BEACH  PTSUNNY   77  65  66 W15       30.12F                  
VERO BEACH     MOSUNNY   76  61  59 W7        30.17F                  
$$
...ELSEWHERE ACROSS CENTRAL FLORIDA...
  
CITY           SKY/WX    TMP DP  RH WIND       PRES   REMARKS
PATRICK AFB    MOSUNNY   78  63  58 NW16      30.14F                  
KSC            PTSUNNY   75  64  69 NW9       30.13F                  
CAPE CANAVERAL MOSUNNY   78  63  61 NW14      30.13F                  
TITUSVILLE     MOSUNNY   75  64  69 W12       30.15F                  
ORLANDO EXEC   PTSUNNY   76  64  66 W9G16     30.15F                  
LEESBURG       PTSUNNY   76  64  66 W13       30.15F                  
THE VILLAGES     N/A     77  66  69 W13       30.04F                  
SANFORD        CLOUDY    75  64  68 W10       30.14F                  
DELAND           N/A     81  64  57 NW13      30.14F                  
ORMOND BEACH   PTSUNNY   75  64  69 W14G21    30.11F                  
WINTER HAVEN   MOSUNNY   78  62  57 W9        30.18S                  
KISSIMMEE      PTSUNNY   77  64  65 W12       30.16F                  
OKEECHOBEE     SUNNY     75  61  60 W5        30.18F                  
TAMPA          MOSUNNY   77  61  57 W8        30.17F                  
$$
...NORTHERN FLORIDA...
  
CITY           SKY/WX    TMP DP  RH WIND       PRES   REMARKS
PALM COAST     PTSUNNY   75  64  69 W13       30.10F                  
ST AUGUSTINE   MOSUNNY   78  65  63 NW13G21   30.08F                  
GAINESVILLE    PTSUNNY   76  62  62 W18       30.11S                  
JACKSONVILLE   MOSUNNY   77  64  64 W13       30.06F                  
TALLAHASSEE    MOSUNNY   79  60  52 W12       30.10F                  
$$
...ALONG THE SOUTHEAST COAST TO THE KEYS...
  
CITY           SKY/WX    TMP DP  RH WIND       PRES   REMARKS
STUART         MOSUNNY   77  57  50 W7        30.18S                  
WEST PALM BCH  PTSUNNY   79  58  48 NW9       30.16F                  
MIAMI          MOSUNNY   80  57  45 CALM      30.17S                  
KEY WEST       SUNNY     79  61  53 E8        30.17S                  
$$
...MARINE REPORTS...
  
STATION/POSITION TIME  TEMP    WIND        PRES    WAVE   SWELL
                       AIR SEA DIR/SP/G            HT/PER HT/PER/DIR
                 (UTC) (F)     (DEG/KT/KT) (MB)    (FT/S) (FT/S/D)
ST AUGUSTINE FP  1600   76 62  270/  9/ 15 1019.3F
20NM E CAPE CANA 1520   69 71  240/ 12/ 14 1021.2R
120 E NEW SMYRNA 1520   74 75  310/ 16/ 19 1020.0R
TRIDENT PIER     1500   72 72  240/ 11/ 14 1021.5R
SEBASTIAN INLET  1600   73     250/  6     1022.0S
4NM E PORT CANAV 1509      71                N/A
6NM NE FPR INLET 1521      76                N/A     1/11
SETTLEMENT PT GB 1600   74     290/ 11/ 13 1022.2S
$$
 


USA.gov is the U.S. government's official web portal to all federal, state and local government web resources and services.